Вернуться в каталог

STARLINK-5416

АктивенСвязьVLEO
NORAD 54855·PAYLOAD·🇺🇸 United States

Запущен Dec 28, 2022 с Cape Canaveral Space Force Station

Loading…

Ближайшие Пролёты (ближайшие 24 часа)

TLE

СвежийSource: CelesTrak SupGP

Эпоха: Sep 15, 2026, 02:25 UTC

1 54855C 22177AM  26258.10118056  .00057540  00000+0  20841-2 0  2586
2 54855  43.0023 131.6288 0001565 275.3724  15.3609 15.27549886    17

Отслеживайте STARLINK-5416 в реальном времени с AllMySat

Download on the App Store